Stündliche Wetter Bolshie Krutcy

Heute, 30 September, Mittwoch

Zeit Temperatur Niederschläge Wind Luftdruck Luftfeuchtigkeit
00:00 +10°C° 0 mm 3 m/S 756 mmHg 69%
01:00 +9°C° 0 mm 2 m/S 756 mmHg 70%
02:00 +9°C° 0 mm 2 m/S 756 mmHg 72%
03:00 +9°C° 0 mm 2 m/S 755 mmHg 71%
04:00 +9°C° 0 mm 3 m/S 755 mmHg 70%
05:00 +9°C° 0 mm 3 m/S 755 mmHg 69%
06:00 +10°C° 0 mm 3 m/S 755 mmHg 68%
07:00 +10°C° 0 mm 3 m/S 755 mmHg 67%
08:00 +11°C° 0 mm 3 m/S 756 mmHg 66%
09:00 +12°C° 0 mm 3 m/S 756 mmHg 61%
10:00 +14°C° 0 mm 3 m/S 756 mmHg 57%
11:00 +15°C° 0 mm 4 m/S 755 mmHg 52%
12:00 +17°C° 0 mm 4 m/S 755 mmHg 51%
13:00 +18°C° 0 mm 4 m/S 755 mmHg 50%
14:00 +18°C° 0 mm 4 m/S 755 mmHg 49%
15:00 +17°C° 0 mm 4 m/S 756 mmHg 55%
16:00 +14°C° 0 mm 3 m/S 756 mmHg 61%
17:00 +13°C° 0 mm 3 m/S 756 mmHg 68%
18:00 +12°C° 0 mm 3 m/S 756 mmHg 69%
19:00 +12°C° 0 mm 3 m/S 756 mmHg 70%
20:00 +11°C° 0 mm 3 m/S 756 mmHg 71%
21:00 +11°C° 0 mm 3 m/S 757 mmHg 73%
22:00 +11°C° 0 mm 3 m/S 757 mmHg 75%
23:00 +10°C° 0 mm 3 m/S 757 mmHg 76%

Morgen, 1 Oktober, Donnerstag

Zeit Temperatur Niederschläge Wind Luftdruck Luftfeuchtigkeit
00:00 +10°C° 0 mm 2 m/S 757 mmHg 78%
01:00 +9°C° 0 mm 2 m/S 757 mmHg 79%
02:00 +9°C° 0 mm 2 m/S 757 mmHg 80%
03:00 +9°C° 0 mm 2 m/S 757 mmHg 80%
04:00 +9°C° 0 mm 2 m/S 757 mmHg 81%
05:00 +8°C° 0 mm 2 m/S 757 mmHg 81%
06:00 +9°C° 0 mm 3 m/S 757 mmHg 78%
07:00 +10°C° 0 mm 3 m/S 757 mmHg 74%
08:00 +11°C° 0 mm 3 m/S 757 mmHg 70%
09:00 +13°C° 0 mm 3 m/S 757 mmHg 65%
10:00 +16°C° 0 mm 3 m/S 757 mmHg 61%
11:00 +17°C° 0 mm 3 m/S 757 mmHg 56%
12:00 +18°C° 0 mm 3 m/S 757 mmHg 54%
13:00 +18°C° 0 mm 4 m/S 757 mmHg 51%
14:00 +19°C° 0 mm 4 m/S 757 mmHg 48%
15:00 +17°C° 0 mm 3 m/S 757 mmHg 55%
16:00 +16°C° 0 mm 3 m/S 757 mmHg 61%
17:00 +13°C° 0 mm 3 m/S 757 mmHg 67%
18:00 +12°C° 0 mm 3 m/S 757 mmHg 69%
19:00 +11°C° 0 mm 3 m/S 757 mmHg 70%
20:00 +10°C° 0 mm 3 m/S 758 mmHg 72%
21:00 +10°C° 0 mm 3 m/S 758 mmHg 71%
22:00 +10°C° 0 mm 3 m/S 758 mmHg 71%
23:00 +9°C° 0 mm 3 m/S 758 mmHg 70%

übermorgen, 2 Oktober, Freitag

Zeit Temperatur Niederschläge Wind Luftdruck Luftfeuchtigkeit
00:00 +9°C° 0 mm 3 m/S 758 mmHg 71%
01:00 +9°C° 0 mm 3 m/S 758 mmHg 72%
02:00 +8°C° 0 mm 3 m/S 758 mmHg 73%
03:00 +8°C° 0 mm 3 m/S 758 mmHg 74%
04:00 +8°C° 0 mm 3 m/S 758 mmHg 74%
05:00 +8°C° 0 mm 3 m/S 758 mmHg 75%
06:00 +9°C° 0 mm 3 m/S 758 mmHg 71%
07:00 +10°C° 0 mm 3 m/S 758 mmHg 67%
08:00 +11°C° 0 mm 3 m/S 758 mmHg 64%
09:00 +13°C° 0 mm 3 m/S 758 mmHg 60%
10:00 +14°C° 0 mm 3 m/S 758 mmHg 57%
11:00 +17°C° 0 mm 3 m/S 758 mmHg 54%
12:00 +17°C° 0 mm 3 m/S 758 mmHg 53%
13:00 +18°C° 0 mm 3 m/S 758 mmHg 52%
14:00 +18°C° 0 mm 3 m/S 758 mmHg 51%
15:00 +17°C° 0 mm 3 m/S 758 mmHg 58%
16:00 +14°C° 0 mm 3 m/S 758 mmHg 64%
17:00 +13°C° 0 mm 3 m/S 758 mmHg 71%
18:00 +12°C° 0 mm 3 m/S 758 mmHg 73%
19:00 +12°C° 0 mm 3 m/S 758 mmHg 76%
20:00 +11°C° 0 mm 3 m/S 759 mmHg 79%
21:00 +11°C° 0 mm 3 m/S 759 mmHg 81%
22:00 +12°C° 0 mm 2 m/S 759 mmHg 82%
23:00 +10°C° 0 mm 2 m/S 759 mmHg 84%

3 Oktober, Samstag

Zeit Temperatur Niederschläge Wind Luftdruck Luftfeuchtigkeit
00:00 +10°C° 0 mm 2 m/S 759 mmHg 85%
01:00 +10°C° 0 mm 2 m/S 758 mmHg 85%
02:00 +10°C° 0 mm 3 m/S 758 mmHg 86%
03:00 +10°C° 0 mm 3 m/S 758 mmHg 87%
04:00 +9°C° 0 mm 3 m/S 758 mmHg 88%
05:00 +9°C° 0 mm 3 m/S 758 mmHg 89%
06:00 +10°C° 0 mm 3 m/S 758 mmHg 85%
07:00 +11°C° 0 mm 3 m/S 758 mmHg 81%
08:00 +11°C° 0 mm 4 m/S 758 mmHg 78%
09:00 +13°C° 0 mm 4 m/S 758 mmHg 73%
10:00 +14°C° 0 mm 4 m/S 759 mmHg 68%
11:00 +15°C° 0 mm 4 m/S 759 mmHg 63%
12:00 +17°C° 0 mm 4 m/S 758 mmHg 63%
13:00 +17°C° 0 mm 4 m/S 758 mmHg 62%
14:00 +17°C° 0 mm 4 m/S 758 mmHg 61%
15:00 +15°C° 0 mm 4 m/S 758 mmHg 66%
16:00 +14°C° 0 mm 3 m/S 758 mmHg 71%
17:00 +13°C° 0 mm 3 m/S 758 mmHg 76%
18:00 +12°C° 0 mm 3 m/S 758 mmHg 78%
19:00 +12°C° 0 mm 3 m/S 759 mmHg 79%
20:00 +11°C° 0 mm 3 m/S 759 mmHg 81%
21:00 +11°C° 0 mm 3 m/S 759 mmHg 82%
22:00 +10°C° 0 mm 3 m/S 759 mmHg 82%
23:00 +10°C° 0 mm 3 m/S 759 mmHg 83%

4 Oktober, Sonntag

Zeit Temperatur Niederschläge Wind Luftdruck Luftfeuchtigkeit
00:00 +10°C° 0 mm 3 m/S 759 mmHg 83%
01:00 +10°C° 0 mm 3 m/S 759 mmHg 83%
02:00 +9°C° 0 mm 3 m/S 759 mmHg 83%
03:00 +9°C° 0 mm 3 m/S 759 mmHg 84%
04:00 +9°C° 0 mm 3 m/S 759 mmHg 85%
05:00 +8°C° 0 mm 3 m/S 759 mmHg 86%
06:00 +9°C° 0 mm 3 m/S 759 mmHg 82%
07:00 +10°C° 0 mm 3 m/S 759 mmHg 78%
08:00 +11°C° 0 mm 3 m/S 759 mmHg 74%
09:00 +12°C° 0 mm 3 m/S 759 mmHg 69%
10:00 +14°C° 0 mm 3 m/S 759 mmHg 64%
11:00 +15°C° 0 mm 4 m/S 759 mmHg 59%
12:00 +17°C° 0 mm 4 m/S 759 mmHg 58%
13:00 +17°C° 0 mm 4 m/S 759 mmHg 56%
14:00 +17°C° 0 mm 4 m/S 758 mmHg 55%
15:00 +16°C° 0 mm 3 m/S 758 mmHg 62%
16:00 +13°C° 0 mm 3 m/S 758 mmHg 68%
17:00 +12°C° 0 mm 3 m/S 758 mmHg 75%
18:00 +11°C° 0 mm 3 m/S 758 mmHg 79%
19:00 +11°C° 0 mm 3 m/S 758 mmHg 83%
20:00 +10°C° 0 mm 3 m/S 758 mmHg 87%
21:00 +10°C° 0 mm 3 m/S 758 mmHg 89%
22:00 +10°C° 0 mm 3 m/S 758 mmHg 91%
23:00 +9°C° 0 mm 3 m/S 758 mmHg 93%

5 Oktober, Montag

Zeit Temperatur Niederschläge Wind Luftdruck Luftfeuchtigkeit
00:00 +9°C° 0 mm 3 m/S 758 mmHg 93%
01:00 +9°C° 0 mm 3 m/S 758 mmHg 94%
02:00 +8°C° 0 mm 3 m/S 758 mmHg 95%
03:00 +8°C° 0 mm 3 m/S 758 mmHg 95%
04:00 +8°C° 0 mm 3 m/S 758 mmHg 95%
05:00 +8°C° 0 mm 3 m/S 758 mmHg 95%
06:00 +9°C° 0 mm 3 m/S 758 mmHg 91%
07:00 +8°C° 0 mm 4 m/S 757 mmHg 87%
08:00 +10°C° 0 mm 4 m/S 757 mmHg 83%
09:00 +12°C° 0 mm 4 m/S 757 mmHg 76%
10:00 +13°C° 0 mm 5 m/S 757 mmHg 70%
11:00 +15°C° 0 mm 5 m/S 757 mmHg 63%
12:00 +15°C° 0 mm 5 m/S 757 mmHg 61%
13:00 +15°C° 0 mm 4 m/S 756 mmHg 60%
14:00 +17°C° 0 mm 4 m/S 756 mmHg 58%
15:00 +15°C° 0 mm 4 m/S 756 mmHg 62%
16:00 +13°C° 0 mm 4 m/S 755 mmHg 66%
17:00 +12°C° 0 mm 3 m/S 755 mmHg 70%
18:00 +12°C° 0 mm 3 m/S 755 mmHg 70%
19:00 +11°C° 0 mm 3 m/S 755 mmHg 71%
20:00 +11°C° 0 mm 4 m/S 754 mmHg 71%
21:00 +11°C° 0 mm 4 m/S 754 mmHg 69%
22:00 +11°C° 0 mm 4 m/S 754 mmHg 66%
23:00 +11°C° 0 mm 4 m/S 754 mmHg 63%
Mehr zeigen

We Need Your Consent

Meteoprog and our Service Providers may store and access personal data such as cookies, device identifiers or other similar technologies on your device and process such data to personalise content and ads, as well as provide social media features and to analyse the traffic.

  • Store and/or access information on your device

    Cookies, device identifiers or other information can be stored or accessed on your device for the purposes indicated above.

  • Personalised ads and content, ad and content measurement, audience insights, and products development

    Ads and content can be personalised based on a profile. More data can be added to better personalise ads and content. Ad and content performance can be measured. Insights about the audience who saw the ads and content can be derived. Such data can be used to develop or improve user’s experience, systems and software.

By clicking ‘I Agree’ you will allow the use of indicated cookies, device identifiers, web beacons or other similar technologies. Your settings can be changed in the browser on your device.

For certain purposes, legitimate interests may be relied on, rather than consent. You can read more about this in our Privacy and Cookie Policy.